Abingdon, VA

7:51 PM EST on January 22, 2017 (GMT -0500)
Virginia Highlands

Weather History for KVJI - May, 2013

Change the Weather History Date:

Thursday, May 2, 2013

  Actual Average (KTRI) Record (KTRI)
Temperature  
Mean Temperature 64 °F -  
Max Temperature 71 °F 71 °F 89 °F (2010)
Min Temperature 57 °F 48 °F 30 °F (1963)
Degree Days  
Heating Degree Days 1    
Growing Degree Days 14 (Base 50)    
Moisture  
Dew Point 54 °F    
Average Humidity 75    
Maximum Humidity 90    
Minimum Humidity 52    
Precipitation  
Precipitation 0.00 in - - ()
Sea Level Pressure  
Sea Level Pressure 30.26 in    
Wind  
Wind Speed 11 mph (ESE)    
Max Wind Speed 16 mph    
Max Gust Speed 22 mph    
Visibility 10 miles    
Events      
Averages and records for this station are not official NWS values.
T = Trace of Precipitation, MM = Missing Value Source: NWS Daily Summary

Daily Weather History Graph

Daily Weather History Graph

Search for Another Location

Airport or City:

Trip Planner

Search our weather history database for the weather conditions in past years. The results will help you decide how hot, cold, wet, or windy it might be!

Date:

Astronomy

May. 02, 2013 Rise Set
Actual Time 6:32 AM EDT 8:17 PM EDT
Civil Twilight 6:05 AM EDT 8:45 PM EDT
Nautical Twilight 5:31 AM EDT 9:19 PM EDT
Astronomical Twilight 4:55 AM EDT 9:55 PM EDT
Moon 2:07 AM EDT (5/2) 1:16 PM EDT (5/2)
Length of Visible Light 14h 40m
Length of Day
13h 44m
Waning Gibbous, 48% of the Moon is Illuminated
May 2
Waning Gibbous
May 9
New
May 18
First Quarter
May 25
Full
May 31
Last Quarter

Hourly Weather History & Observations

Time (EDT) Temp. Dew Point Humidity Pressure Visibility Wind Dir Wind Speed Gust Speed Precip Events Conditions
12:15 AM 60.3 °F 51.6 °F 73% 30.29 in 10.0 mi SE 15.0 mph - N/A   Overcast
12:35 AM 59.9 °F 51.6 °F 74% 30.30 in 10.0 mi SE 11.5 mph - N/A   Overcast
12:55 AM 59.9 °F 51.4 °F 74% 30.29 in 10.0 mi SE 10.4 mph 18.4 mph N/A   Overcast
1:15 AM 59.4 °F 51.4 °F 75% 30.28 in 10.0 mi ESE 9.2 mph - N/A   Overcast
1:35 AM 59.0 °F 51.3 °F 75% 30.27 in 10.0 mi ESE 11.5 mph - N/A   Overcast
1:55 AM 58.5 °F 51.4 °F 77% 30.27 in 10.0 mi ESE 11.5 mph - N/A   Mostly Cloudy
2:15 AM 58.1 °F 52.0 °F 80% 30.26 in 10.0 mi ESE 11.5 mph - N/A   Mostly Cloudy
2:35 AM 57.6 °F 52.7 °F 84% 30.25 in 10.0 mi East 13.8 mph - N/A   Mostly Cloudy
2:55 AM 57.6 °F 52.9 °F 84% 30.25 in 10.0 mi East 9.2 mph - N/A   Scattered Clouds
3:15 AM 57.4 °F 53.4 °F 87% 30.24 in 10.0 mi East 12.7 mph 17.3 mph N/A   Mostly Cloudy
3:35 AM 57.6 °F 53.6 °F 87% 30.24 in 10.0 mi East 12.7 mph - N/A   Overcast
3:55 AM 57.4 °F 53.8 °F 88% 30.24 in 10.0 mi East 10.4 mph - N/A   Overcast
4:15 AM 57.4 °F 54.1 °F 89% 30.24 in 10.0 mi East 8.1 mph - N/A   Overcast
4:35 AM 57.6 °F 54.1 °F 88% 30.24 in 10.0 mi East 8.1 mph - N/A   Overcast
4:55 AM 57.6 °F 54.1 °F 88% 30.24 in 10.0 mi East 6.9 mph - N/A   Overcast
5:15 AM 57.4 °F 54.3 °F 90% 30.24 in 10.0 mi East 8.1 mph - N/A   Overcast
5:35 AM 57.4 °F 54.3 °F 90% 30.24 in 10.0 mi ENE 6.9 mph - N/A   Overcast
5:55 AM 57.4 °F 54.0 °F 88% 30.24 in 10.0 mi East 4.6 mph - N/A   Overcast
6:15 AM 57.4 °F 54.0 °F 88% 30.24 in 10.0 mi East 8.1 mph - N/A   Overcast
6:35 AM 57.4 °F 53.8 °F 88% 30.25 in 10.0 mi East 11.5 mph - N/A   Overcast
6:55 AM 57.2 °F 53.6 °F 88% 30.26 in 10.0 mi East 10.4 mph - N/A   Overcast
7:15 AM 57.4 °F 53.6 °F 87% 30.26 in 10.0 mi East 10.4 mph - N/A   Overcast
7:35 AM 57.6 °F 53.6 °F 87% 30.26 in 10.0 mi East 11.5 mph - N/A   Overcast
7:55 AM 57.9 °F 53.6 °F 86% 30.27 in 10.0 mi East 10.4 mph - N/A   Overcast
8:15 AM 59.0 °F 53.8 °F 83% 30.28 in 10.0 mi East 12.7 mph - N/A   Overcast
8:35 AM 59.0 °F 53.6 °F 82% 30.28 in 10.0 mi ESE 13.8 mph - N/A   Overcast
8:55 AM 60.1 °F 54.0 °F 80% 30.27 in 10.0 mi East 11.5 mph - N/A   Overcast
9:15 AM 60.3 °F 54.1 °F 80% 30.28 in 10.0 mi East 12.7 mph - N/A   Overcast
9:35 AM 60.3 °F 53.8 °F 79% 30.28 in 10.0 mi ESE 15.0 mph 19.6 mph N/A   Overcast
9:55 AM 60.6 °F 54.5 °F 80% 30.28 in 10.0 mi East 11.5 mph - N/A   Overcast
10:15 AM 60.8 °F 54.5 °F 80% 30.28 in 10.0 mi East 11.5 mph - N/A   Overcast
10:35 AM 61.3 °F 54.7 °F 79% 30.29 in 10.0 mi East 10.4 mph - N/A   Overcast
10:55 AM 61.3 °F 54.9 °F 79% 30.29 in 10.0 mi East 16.1 mph 19.6 mph N/A   Overcast
11:15 AM 62.6 °F 55.6 °F 78% 30.30 in 10.0 mi East 15.0 mph - N/A   Overcast
11:35 AM 63.5 °F 54.9 °F 73% 30.30 in 10.0 mi SE 10.4 mph - N/A   Overcast
11:55 AM 63.5 °F 55.0 °F 74% 30.30 in 10.0 mi SE 10.4 mph 18.4 mph N/A   Overcast
12:15 PM 64.4 °F 55.2 °F 72% 30.30 in 10.0 mi ESE 10.4 mph - N/A   Overcast
12:35 PM 65.5 °F 55.6 °F 70% 30.28 in 10.0 mi SE 11.5 mph 16.1 mph N/A   Overcast
12:55 PM 68.2 °F 56.7 °F 67% 30.28 in 10.0 mi SSE 8.1 mph 16.1 mph N/A   Overcast
1:15 PM 67.3 °F 56.3 °F 68% 30.28 in 10.0 mi ESE 13.8 mph - N/A   Overcast
1:35 PM 66.9 °F 55.2 °F 66% 30.28 in 10.0 mi ESE 11.5 mph 16.1 mph N/A   Overcast
1:55 PM 67.5 °F 56.7 °F 68% 30.27 in 10.0 mi East 10.4 mph - N/A   Overcast
2:15 PM 69.6 °F 57.2 °F 65% 30.27 in 10.0 mi East 9.2 mph - N/A   Overcast
2:35 PM 71.2 °F 58.1 °F 63% 30.26 in 10.0 mi East 11.5 mph 16.1 mph N/A   Overcast
2:55 PM 71.2 °F 58.3 °F 64% 30.25 in 10.0 mi East 10.4 mph - N/A   Overcast
3:15 PM 70.5 °F 57.2 °F 63% 30.25 in 10.0 mi NE 5.8 mph - N/A   Mostly Cloudy
3:35 PM 71.4 °F 53.1 °F 52% 30.24 in 10.0 mi South 9.2 mph - N/A   Overcast
3:55 PM 71.2 °F 54.5 °F 55% 30.24 in 10.0 mi South 10.4 mph - N/A   Overcast
4:15 PM 70.9 °F 54.0 °F 55% 30.24 in 10.0 mi South 6.9 mph - N/A   Overcast
4:35 PM 69.8 °F 55.9 °F 61% 30.23 in 10.0 mi ESE 11.5 mph 17.3 mph N/A   Overcast
4:55 PM 70.0 °F 55.0 °F 59% 30.23 in 10.0 mi South 5.8 mph - N/A   Mostly Cloudy
5:15 PM 69.1 °F 54.5 °F 60% 30.23 in 10.0 mi South 12.7 mph 17.3 mph N/A   Mostly Cloudy
5:35 PM 69.8 °F 55.4 °F 60% 30.23 in 10.0 mi South 9.2 mph - N/A   Overcast
5:55 PM 69.3 °F 54.5 °F 59% 30.23 in 10.0 mi South 11.5 mph - N/A   Mostly Cloudy
6:15 PM 68.4 °F 54.7 °F 62% 30.23 in 10.0 mi SSE 10.4 mph - N/A   Mostly Cloudy
6:35 PM 68.0 °F 54.1 °F 61% 30.22 in 10.0 mi SSE 11.5 mph - N/A   Mostly Cloudy
6:55 PM 66.9 °F 54.3 °F 64% 30.22 in 10.0 mi SE 12.7 mph 17.3 mph N/A   Scattered Clouds
7:15 PM 65.3 °F 53.8 °F 66% 30.22 in 10.0 mi SE 12.7 mph - N/A   Clear
7:35 PM 64.0 °F 53.2 °F 68% 30.22 in 10.0 mi SSE 13.8 mph 21.9 mph N/A   Clear
7:55 PM 63.5 °F 53.1 °F 69% 30.23 in 10.0 mi SSE 13.8 mph 20.7 mph N/A   Clear
8:15 PM 62.6 °F 52.7 °F 70% 30.23 in 10.0 mi SSE 12.7 mph 17.3 mph N/A   Clear
8:35 PM 62.1 °F 52.7 °F 71% 30.24 in 10.0 mi SSE 12.7 mph - N/A   Clear
8:55 PM 61.9 °F 52.9 °F 72% 30.24 in 10.0 mi SE 11.5 mph - N/A   Mostly Cloudy
9:15 PM 61.7 °F 53.1 °F 73% 30.25 in 10.0 mi SE 9.2 mph - N/A   Overcast
9:35 PM 61.3 °F 53.1 °F 74% 30.25 in 10.0 mi SE 11.5 mph - N/A   Mostly Cloudy
9:55 PM 61.0 °F 52.7 °F 74% 30.25 in 10.0 mi SE 12.7 mph 17.3 mph N/A   Scattered Clouds
10:15 PM 60.8 °F 52.9 °F 75% 30.25 in 10.0 mi ESE 12.7 mph - N/A   Mostly Cloudy
10:35 PM 60.8 °F 52.7 °F 75% 30.25 in 10.0 mi SE 11.5 mph 20.7 mph N/A   Mostly Cloudy
10:55 PM 60.8 °F 52.9 °F 75% 30.25 in 10.0 mi ESE 10.4 mph - N/A   Mostly Cloudy
11:15 PM 60.8 °F 52.9 °F 75% 30.25 in 10.0 mi SE 11.5 mph - N/A   Overcast
11:35 PM 60.3 °F 53.1 °F 77% 30.25 in 10.0 mi ESE 8.1 mph - N/A   Overcast
11:55 PM 60.3 °F 53.1 °F 77% 30.25 in 10.0 mi ESE 10.4 mph - N/A   Overcast